Kosmos-2390

operational
NORAD ID: 27464 Int'l Des: 2002-036 Owner: KVR Country: RU
LEOCIRCULARPOLAR

About Kosmos-2390

Description loading...

Live Position

Loading 3D Globe...

Upcoming Passes

Altitude History

Altitude vs Time

uPlot chart will show altitude changes over time

Two-Line Element Set

1 27464U 02036A 26103.17122476 .00000037 00000-0 19187-3 0 9995
2 27464 82.4881 25.6043 0026517 41.9422 318.3683 12.44621380 79581
Epoch: Apr 13, 2026 • Age: 4 hours

Current Status

Altitude 1485.3 km
Velocity 7.13 km/s
Sub-Earth Point 80.83°N, 112.07°E
Launch Date Jul 8, 2002
Age 23.7 years
Type other

Technical Details

Classification Payload
Mass 225.00 kg
Dry Mass 225.00 kg
Total Mass 225.00 kg
Length 1.60 m
Diameter 0.80 m
Span 7.00 m
Shape Cyl + Ant
Manufacturer NPOPMR
Bus Type Strela-3
Phase Status In Orbit
Owner/State KVR/RU

Large Constellations

Loading constellations...